Weather in Kestenga

Russia / Republic of Karelia     65°53′11″N   31°49′51″E
temp.,
°C
wind,
m/s
gust,
m/s
humid.,
%
clouds,
%
prec.,
mm/h
press.,
hPa
HPBL,
m
6 august, fri
fri600:00+11sw227986 0.0 101719
03:00+11sw2279100 0.0 101838
06:00+11sw247888 0.0 1019100
09:00+15w126678 0.0 1019245
12:00+19sw224875 0.0 10201186
15:00+20w124356 0.0 10191756
18:00+19sw1148100 0.0 10201054
21:00+14se2273100 0.0 102042
7 august, sat
sat700:00+12sse237899 0.0 102157
03:00+13s2277100 0.0 102237
06:00+13s117599 0.0 102242
09:00+16sse225722 0.0 1022377
12:00+18se344697 0.0 1023795
15:00+20ese34425 0.0 10221681
18:00+19ese454618 0.0 10211824
21:00+14ese39660 0.0 1022278
8 august, sun
sun800:00+11e412750 0.0 1022302
03:00+10ene3118189 0.0 1022222
06:00+11ene41180100 0.0 1021286
09:00+16e51261100 0.0 1020748
12:00+18e61152100 0.0 10201421
15:00+18ese61051100 0.0 10201299
18:00+14e41065100 0.0 1020645
21:00+13ese41070100 0.0 1020522
9 august, mon
mon900:00+12ese3985100 0.0 1020545
03:00+12e31086100 0.0 1020632
06:00+12e41183100 0.0 1019756
09:00+14e487677 0.0 1019767
12:00+13e4781100 0.0 1019768
15:00+13e3583100 0.1 1019609
18:00+14e3583100 0.0 1018588
21:00+13e3789100 0.0 1019435
10 august, tue
tue1000:00+13ese3795100 0.0 1019367
03:00+12e389792 0.0 1018343
06:00+13e4109597 0.0 1017403
09:00+13e4109697 0.6 1016488
12:00+14ese4119589 0.8 1015623
15:00+14ese4897100 1.1 1015453
18:00+17se368747 0.0 1015479
21:00+15se23943 0.6 101641